AirNav   Air Wisconsin Up To $57,000 Bonus
 
 732 users online  

1I3 Shawnee Field Airport
Bloomfield, Indiana, USA

GOING TO BLOOMFIELD?


FAA INFORMATION EFFECTIVE 01 DECEMBER 2022

Location

FAA Identifier: 1I3
Lat/Long: 39-02-33.8000N 087-00-09.9000W
39-02.563333N 087-00.165000W
39.0427222,-87.0027500
(estimated)
Elevation: 501 ft. / 152.7 m (surveyed)
Variation: 01W (1985)
From city: 3 miles W of BLOOMFIELD, IN
Time zone: UTC -5 (UTC -4 during Daylight Saving Time)
Zip code: 47465

Airport Operations

Airport use: Open to the public
Activation date: 10/1970
Control tower: no
ARTCC: INDIANAPOLIS CENTER
FSS: TERRE HAUTE FLIGHT SERVICE STATION
NOTAMs facility: HUF (NOTAM-D service available)
Attendance: UNATTENDED
FOR ARPT ATTNDT CALL 812-384-6232.
Wind indicator: lighted
Segmented circle: no
Lights: SS-SR

Airport Communications

CTAF: 122.9
WX ASOS at BMG (19 nm E): 134.525 (812-825-8046)

Nearby radio navigation aids

VOR radial/distance  VOR name  Freq  Var
OOMr254/19.1HOOSIER VORTAC110.2002W
TTHr155/29.1TERRE HAUTE VORTAC115.3002E

 
NDB name  Hdg/Dist  Freq  Var  ID
PALESTINE090/29.839103WPLX .--. .-.. -..-

Airport Services

Parking: hangars and tiedowns
Airframe service: MINOR
Powerplant service: MINOR
PART TIME

Runway Information

Runway 18/36

Dimensions: 2160 x 150 ft. / 658 x 46 m
485 FT STWY NORTH END.
Surface: turf, in good condition
Runway edge lights: non-standard
RY 18/36 NSTD EDGE LGTS, PCV PIPE WITH GLASS JARS.
RUNWAY 18  RUNWAY 36
Latitude: 39-02.741323N39-02.385412N
Longitude: 087-00.165477W087-00.164000W
Elevation: 500.0 ft.500.0 ft.
Traffic pattern: leftleft
Runway heading: 181 magnetic, 180 true001 magnetic, 360 true
Markings: nonenone
Obstructions: none25 ft. bldg, 280 ft. from runway, 110 ft. left of centerline, 11:1 slope to clear

Airport Ownership and Management from official FAA records

Ownership: Privately-owned
Owner: SHAWNEE FIELD INC.
3416 W STATE ROAD 54
BLOOMFIELD, IN 47424
Phone (812) 384-6232
Manager: MELINDA HARVEY
3416 W STATE ROAD 54
BLOOMFIELD, IN 47424
Phone 812-829-5999

Airport Operational Statistics

Aircraft based on the field: 21
Single engine airplanes: 18
Ultralights: 3
    
Aircraft operations: avg 57/week *
83% local general aviation
17% transient general aviation
* for 12-month period ending 31 December 2019

Additional Remarks

370'ANTENNA TWR 1 MI NW.
RY 18/36 HAS A -4 FT SLOPE ON EAST SIDE; NORTH OF RY 18 THR.
BIRDS ON & INVOF RY.
ULTRA LGTS ON & INVOF ARPT.
FOR CD CTC HULMAN APCH AT 812-877-7581.

Instrument Procedures

There are no published instrument procedures at 1I3.

Some nearby airports with instrument procedures:

KBMG - Monroe County Airport (19 nm E)
KSIV - Sullivan County Airport (21 nm W)
KDCY - Daviess County Airport (21 nm S)
0I2 - Brazil Clay County Airport (26 nm N)
KHUF - Terre Haute Regional Airport (28 nm NW)
 
Loc | Ops | Rwys | IFR | FBO | Links
Com | Nav | Svcs | Stats | Notes
Area around 1I3 (Shawnee Field Airport)
 
Road maps at: MapQuest Bing Google
 
Aerial photo
WARNING: Photo may not be current or correct
Aerial photo of 1I3 (Shawnee Field Airport)
Do you have a better or more recent aerial photo of Shawnee Field Airport that you would like to share? If so, please send us your photo.

 
Sectional chart

 
Airport distance calculator
Flying to Shawnee Field Airport? Find the distance to fly.

From to 1I3

Sunrise and sunset
Times for 03-Dec-2022
 Local
(UTC-5)
 Zulu
(UTC)
Morning civil twilight07:2112:21
Sunrise07:5112:51
Sunset17:2522:25
Evening civil twilight17:5422:54

Current date and time
Zulu (UTC)  03-Dec-2022 13:30:36
Local (UTC-5)  03-Dec-2022 08:30:36
 
METAR
KBMG 
19nm E 
031253Z 31010G22KT 280V350 10SM SCT039 03/M02 A3022 RMK AO2 PRESRR SLP235 T00331022
KDCY 
21nm S 
031310Z AUTO 31016G20KT 10SM CLR 02/M03 A3030 RMK AO2 T00171031
KBFR 
29nm SE 
031315Z AUTO 31008G15KT 10SM BKN039 OVC047 05/M01 A3023 RMK AO2
KHUF 
29nm NW 
031253Z 31016G32KT 9SM -SN CLR 00/M06 A3027 RMK AO2 PK WND 30032/1244 SNB47 SLP253 P0000 T00001056 $
KRSV 
30nm W 
031315Z AUTO 31015G18KT 10SM CLR M01/M06 A3034 RMK AO2 T10101056
KLWV 
32nm SW 
031253Z AUTO 32012KT 10SM CLR 02/M04 A3031 RMK AO2 PK WND 32026/1204 SLP265 T00171039
KFRH 
36nm SE 
031315Z AUTO 30011G20KT 261V341 10SM BKN028 OVC037 05/M01 A3024 RMK AO1
KGPC 
37nm N 
031315Z AUTO 29012KT 10SM CLR M01/M05 A3025 RMK AO2 T10061054
TAF
KBMG 
19nm E 
031127Z 0312/0412 30018G33KT P6SM BKN020 FM031400 31016G29KT P6SM FEW100 FM031600 32013G23KT P6SM FEW250 FM032200 32008KT P6SM SKC FM040600 VRB03KT P6SM BKN200
NOTAMs
Click for the latest NOTAMs
NOTAMs are issued by the DoD/FAA and will open in a separate window not controlled by AirNav.

 

 
 

Would you like to see your business listed on this page?

 If your business provides an interesting product or service to pilots, flight crews, aircraft, or users of the Shawnee Field Airport, you should consider listing it here.  To start the listing process, click on the button below
 
Add a business
 

Other Pages about Shawnee Field Airport

Update a link
 
Copyright © AirNav, LLC. All rights reserved. Privacy Policy  Contact